EW4565 Weather Reports


Display with metric or nautical units.
time (UTC)temp
F
wind
direction
speed
MPH
gust
MPH
rain 1hr
in
rain 24hr
in
rain mn
in
humidity
%
barometer
mb
20260503010454 74 256 1.0 3.0 0.00 0.00 0.00 29 1013.2
20260503005956 74 256 0.0 3.0 0.00 0.00 0.00 30 1013.2
20260503005453 74 265 0.0 2.0 0.00 0.00 0.00 30 1013.2
20260503004951 73 264 0.0 3.0 0.00 0.00 0.00 31 1013.2
20260503004449 73 260 0.0 3.0 0.00 0.00 0.00 31 1013.3
20260503003949 73 258 0.0 2.0 0.00 0.00 0.00 31 1013.3
20260503003449 74 258 0.0 2.0 0.00 0.00 0.00 31 1013.2
20260503002946 75 258 0.0 2.0 0.00 0.00 0.00 31 1013.2
20260503002748 75 258 0.0 2.0 0.00 0.00 0.00 30 1013.3
20260503001945 76 258 0.0 3.0 0.00 0.00 0.00 29 1013.3
20260503001445 76 258 0.0 3.0 0.00 0.00 0.00 29 1013.3
20260503000945 75 258 0.0 3.0 0.00 0.00 0.00 31 1013.2
20260503000443 75 258 0.0 3.0 0.00 0.00 0.00 32 1013.4
20260502235941 75 258 0.0 3.0 0.00 0.00 0.00 32 1013.4
20260502235443 75 258 0.0 3.0 0.00 0.00 0.00 32 1013.4
20260502235239 75 258 0.0 3.0 0.00 0.00 0.00 33 1013.5
20260502234440 75 262 1.0 3.0 0.00 0.00 0.00 33 1013.5
20260502233940 75 263 1.0 3.0 0.00 0.00 0.00 33 1013.5
20260502233441 75 262 1.0 3.0 0.00 0.00 0.00 33 1013.6
20260502232943 74 260 1.0 4.0 0.00 0.00 0.00 31 1013.7
20260502232441 74 259 1.0 4.0 0.00 0.00 0.00 30 1013.7
20260502231935 74 279 1.0 4.0 0.00 0.00 0.00 31 1013.8
20260502231436 74 278 1.0 3.0 0.00 0.00 0.00 32 1013.9
20260502230935 74 275 1.0 4.0 0.00 0.00 0.00 32 1013.9
20260502230436 74 275 0.0 4.0 0.00 0.00 0.00 32 1014.0
20260502225934 74 266 0.0 3.0 0.00 0.00 0.00 33 1014.1
20260502225432 73 274 1.0 7.0 0.00 0.00 0.00 34 1014.2
20260502224931 73 264 1.0 7.0 0.00 0.00 0.00 34 1014.3
20260502224430 73 273 1.0 4.0 0.00 0.00 0.00 34 1014.3
20260502224229 73 264 1.0 4.0 0.00 0.00 0.00 33 1014.5
20260502223430 73 262 1.0 4.0 0.00 0.00 0.00 32 1014.5
20260502222932 74 274 1.0 4.0 0.00 0.00 0.00 34 1014.5
20260502222724 73 273 1.0 5.0 0.00 0.00 0.00 36 1014.5
20260502221932 73 256 1.0 5.0 0.00 0.00 0.00 37 1014.6
20260502221430 73 276 1.0 6.0 0.00 0.00 0.00 37 1014.5
20260502220930 73 263 1.0 6.0 0.00 0.00 0.00 37 1014.7
20260502220650 73 247 1.0 6.0 0.00 0.00 0.00 36 1014.7
20260502215931 73 291 2.0 6.0 0.00 0.00 0.00 35 1014.8
20260502215429 73 268 1.0 6.0 0.00 0.00 0.00 35 1014.8
20260502214928 72 252 1.0 3.0 0.00 0.00 0.00 35 1014.8
20260502214738 72 251 0.0 3.0 0.00 0.00 0.00 36 1015.0
20260502214228 72 249 1.0 4.0 0.00 0.00 0.00 37 1014.9
20260502213433 73 249 1.0 4.0 0.00 0.00 0.00 36 1015.0
20260502212933 72 243 0.0 4.0 0.00 0.00 0.00 38 1015.1
20260502212432 71 243 0.0 4.0 0.00 0.00 0.00 37 1015.2
20260502211934 71 241 0.0 3.0 0.00 0.00 0.00 39 1015.3
20260502211429 71 241 0.0 3.0 0.00 0.00 0.00 38 1015.3
20260502210929 71 241 0.0 3.0 0.00 0.00 0.00 38 1015.4
20260502210429 71 240 0.0 3.0 0.00 0.00 0.00 39 1015.5
20260502205923 70 241 1.0 3.0 0.00 0.00 0.00 39 1015.5
20260502205423 70 239 1.0 6.0 0.00 0.00 0.00 38 1015.6
20260502204923 69 237 1.0 6.0 0.00 0.00 0.00 38 1015.6
20260502204423 69 262 1.0 6.0 0.00 0.00 0.00 39 1015.6
20260502203921 69 264 1.0 7.0 0.00 0.00 0.00 39 1015.7
20260502203422 68 253 1.0 7.0 0.00 0.00 0.00 42 1015.7
20260502202919 68 255 0.0 4.0 0.00 0.00 0.00 41 1015.9
20260502202714 68 264 0.0 3.0 0.00 0.00 0.00 41 1015.9
20260502201921 68 264 1.0 4.0 0.00 0.00 0.00 39 1015.9
20260502201419 68 262 1.0 4.0 0.00 0.00 0.00 38 1016.1
20260502200917 68 282 1.0 7.0 0.00 0.00 0.00 37 1016.2
20260502200417 68 273 1.0 7.0 0.00 0.00 0.00 38 1016.3
20260502195917 69 292 1.0 4.0 0.00 0.00 0.00 37 1016.3
20260502195415 69 259 1.0 6.0 0.00 0.00 0.00 39 1016.3
20260502194917 69 276 1.0 8.0 0.00 0.00 0.00 39 1016.3
20260502194414 69 264 2.0 8.0 0.00 0.00 0.00 41 1016.3
20260502193916 68 283 2.0 8.0 0.00 0.00 0.00 40 1016.4
20260502193415 68 333 2.0 8.0 0.00 0.00 0.00 42 1016.4
20260502192913 68 296 2.0 7.0 0.00 0.00 0.00 39 1016.4
20260502192413 68 264 1.0 6.0 0.00 0.00 0.00 40 1016.6
20260502191914 67 240 1.0 3.0 0.00 0.00 0.00 42 1016.7
20260502191415 67 240 1.0 3.0 0.00 0.00 0.00 40 1016.8
20260502190913 67 236 1.0 5.0 0.00 0.00 0.00 41 1016.8
20260502190415 67 210 1.0 5.0 0.00 0.00 0.00 43 1016.9
20260502185913 67 239 1.0 3.0 0.00 0.00 0.00 43 1017.0
20260502185410 67 233 0.0 3.0 0.00 0.00 0.00 45 1017.0
20260502184909 66 268 0.0 3.0 0.00 0.00 0.00 45 1017.1
20260502184408 65 268 1.0 6.0 0.00 0.00 0.00 46 1017.2
20260502183906 65 268 1.0 6.0 0.00 0.00 0.00 45 1017.3
20260502183405 65 266 1.0 6.0 0.00 0.00 0.00 44 1017.3
20260502183127 65 266 1.0 6.0 0.00 0.00 0.00 47 1017.3
20260502182407 64 262 1.0 4.0 0.00 0.00 0.00 46 1017.4
20260502181902 64 259 1.0 2.0 0.00 0.00 0.00 47 1017.5
20260502181709 64 259 0.0 3.0 0.00 0.00 0.00 49 1017.6
20260502180902 64 258 0.0 3.0 0.00 0.00 0.00 47 1017.8
20260502180400 63 266 0.0 2.0 0.00 0.00 0.00 48 1017.6
20260502170400 60 256 1.0 6.0 0.00 0.00 0.00 52 1018.3
20260502163904 60 243 0.0 5.0 0.00 0.00 0.00 52 1018.4
20260502163404 60 247 0.0 5.0 0.00 0.00 0.00 53 1018.4
20260502162907 60 260 0.0 2.0 0.00 0.00 0.00 53 1018.4
20260502162404 59 262 0.0 2.0 0.00 0.00 0.00 53 1018.4
20260502161905 59 262 0.0 2.0 0.00 0.00 0.00 57 1018.5
20260502161407 58 262 0.0 2.0 0.00 0.00 0.00 56 1018.5
20260502160905 58 262 0.0 1.0 0.00 0.00 0.00 57 1018.5
20260502160404 58 262 0.0 1.0 0.00 0.00 0.00 56 1018.5
20260502151907 53 262 0.0 0.0 0.00 0.00 0.00 62 1018.7
20260502151404 53 262 0.0 0.0 0.00 0.00 0.00 63 1018.6
20260502150905 52 262 0.0 1.0 0.00 0.00 0.00 62 1018.7
20260502150405 52 262 0.0 1.0 0.00 0.00 0.00 61 1018.6
20260502130353 48 260 0.0 0.0 0.00 0.00 0.00 68 1018.0
20260502123351 48 260 0.0 0.0 0.00 0.00 0.00 67 1017.8
20260502122848 48 260 0.0 0.0 0.00 0.00 0.00 66 1017.9
20260502122347 48 260 0.0 0.0 0.00 0.00 0.00 66 1018.0
20260502121845 48 260 0.0 0.0 0.00 0.00 0.00 65 1018.1
20260502121343 48 260 0.0 0.0 0.00 0.00 0.00 66 1018.0
20260502120842 49 260 0.0 0.0 0.00 0.00 0.00 66 1017.9
20260502120338 49 260 0.0 0.0 0.00 0.00 0.00 66 1017.9
20260502120137 49 260 0.0 0.0 0.00 0.00 0.00 66 1017.9
20260502115337 49 260 0.0 0.0 0.00 0.00 0.00 65 1017.9
20260502114835 49 260 0.0 0.0 0.00 0.00 0.00 65 1017.8
20260502114335 49 260 0.0 0.0 0.00 0.00 0.00 64 1017.8
20260502113832 49 260 0.0 0.0 0.00 0.00 0.00 64 1017.8
20260502113330 49 260 0.0 0.0 0.00 0.00 0.00 64 1017.8
20260502112947 50 260 0.0 0.0 0.00 0.00 0.00 63 1017.8
20260502112925 49 260 0.0 0.0 0.00 0.00 0.00 63 1017.8
20260502111830 50 260 0.0 0.0 0.00 0.00 0.00 63 1017.8
20260502111330 50 260 0.0 0.0 0.00 0.00 0.00 63 1017.8
20260502110831 50 260 0.0 0.0 0.00 0.00 0.00 63 1017.8
20260502110330 50 260 0.0 0.0 0.00 0.00 0.00 62 1017.8
20260502105831 50 260 0.0 0.0 0.00 0.00 0.00 63 1017.8
20260502105329 50 260 0.0 0.0 0.00 0.00 0.00 63 1017.6
20260502104829 50 260 0.0 0.0 0.00 0.00 0.00 63 1017.6
20260502104329 51 260 0.0 0.0 0.00 0.00 0.00 61 1017.6
20260502103828 51 260 0.0 0.0 0.00 0.00 0.00 61 1017.6
20260502103324 51 260 0.0 0.0 0.00 0.00 0.00 60 1017.6
20260502102823 51 260 0.0 0.0 0.00 0.00 0.00 61 1017.6
20260502102618 51 260 0.0 0.0 0.00 0.00 0.00 61 1017.6
20260502101818 50 260 0.0 0.0 0.00 0.00 0.00 61 1017.5
20260502101317 50 260 0.0 0.0 0.00 0.00 0.00 61 1017.6
20260502100855 51 260 0.0 0.0 0.00 0.00 0.00 61 1017.4
20260502091309 52 260 0.0 0.0 0.00 0.00 0.00 56 1017.1
20260502090811 52 260 0.0 0.0 0.00 0.00 0.00 57 1017.1
20260502090559 52 260 0.0 0.0 0.00 0.00 0.00 57 1017.1
20260502071356 55 260 0.0 0.0 0.00 0.00 0.00 55 1016.5
20260502071342 55 260 0.0 0.0 0.00 0.00 0.00 55 1016.7
20260502070305 55 260 0.0 0.0 0.00 0.00 0.00 54 1016.6
20260502065804 56 260 0.0 0.0 0.00 0.00 0.00 54 1016.4
20260502065306 56 260 0.0 0.0 0.00 0.00 0.00 54 1016.4
20260502064803 56 260 0.0 0.0 0.00 0.00 0.00 54 1016.5
20260502064559 56 260 0.0 0.0 0.00 0.00 0.00 53 1016.5
20260502063804 56 260 0.0 0.0 0.00 0.00 0.00 53 1016.3
20260502063305 56 260 0.0 0.0 0.00 0.00 0.00 52 1016.4
20260502062805 56 260 0.0 0.0 0.00 0.00 0.00 52 1016.3
20260502062306 56 260 0.0 0.0 0.00 0.00 0.00 51 1016.3
20260502061806 56 260 0.0 0.0 0.00 0.00 0.00 51 1016.1
20260502061304 57 260 0.0 0.0 0.00 0.00 0.00 51 1015.9
20260502060803 57 260 0.0 0.0 0.00 0.00 0.00 50 1015.9
20260502060305 57 260 0.0 0.0 0.00 0.00 0.00 50 1015.8
20260502055805 58 260 0.0 0.0 0.00 0.00 0.00 49 1015.8
20260502055305 58 260 0.0 0.0 0.00 0.00 0.00 48 1015.8
20260502054805 58 260 0.0 0.0 0.00 0.00 0.00 48 1015.7
20260502054304 58 260 0.0 2.0 0.00 0.00 0.00 48 1015.7
20260502053804 58 260 0.0 2.0 0.00 0.00 0.00 47 1015.8
20260502053303 58 259 0.0 2.0 0.00 0.00 0.00 48 1015.7
20260502052805 59 259 0.0 2.0 0.00 0.00 0.00 48 1015.7
20260502052306 59 253 0.0 0.0 0.00 0.00 0.00 49 1015.5
20260502051805 59 253 0.0 0.0 0.00 0.00 0.00 49 1015.4
20260502051306 59 253 0.0 0.0 0.00 0.00 0.00 50 1015.3
20260502050804 60 254 0.0 0.0 0.00 0.00 0.00 50 1015.3
20260502050304 60 253 0.0 0.0 0.00 0.00 0.00 52 1015.3
20260502045804 60 254 0.0 0.0 0.00 0.00 0.00 50 1015.3
20260502045306 60 254 0.0 0.0 0.00 0.00 0.00 50 1015.2
20260502044807 61 254 0.0 0.0 0.00 0.00 0.00 49 1015.2
20260502044303 61 253 0.0 0.0 0.00 0.00 0.00 48 1015.0
20260502043804 62 254 0.0 0.0 0.00 0.00 0.00 47 1015.2
20260502043304 62 254 0.0 0.0 0.00 0.00 0.00 48 1015.0
20260502043056 62 253 0.0 0.0 0.00 0.00 0.00 46 1015.0
20260502042306 62 253 0.0 0.0 0.00 0.00 0.00 47 1015.0
20260502041807 62 254 0.0 0.0 0.00 0.00 0.00 46 1014.9
20260502041423 63 254 0.0 0.0 0.00 0.00 0.00 46 1014.9
20260502041356 63 253 0.0 0.0 0.00 0.00 0.00 46 1014.9
20260502040306 63 253 0.0 1.0 0.00 0.00 0.00 45 1014.9
20260502040056 63 253 0.0 1.0 0.00 0.00 0.00 45 1015.0
20260502035306 63 254 0.0 0.0 0.00 0.00 0.00 45 1014.9
20260502035111 64 253 0.0 0.0 0.00 0.00 0.00 45 1014.8
20260502034559 64 254 0.0 0.0 0.00 0.00 0.00 43 1014.8
20260502034056 64 254 0.0 1.0 0.00 0.00 0.00 44 1014.7
20260502033303 64 254 0.0 1.0 0.00 0.00 0.00 43 1014.6
20260502033054 65 253 0.0 0.0 0.00 0.00 0.00 43 1014.5
20260502032306 65 253 0.0 0.0 0.00 0.00 0.00 42 1014.2
20260502031803 65 253 0.0 0.0 0.00 0.00 0.00 41 1014.2
20260502031304 65 253 0.0 0.0 0.00 0.00 0.00 41 1014.1
20260502030804 66 253 0.0 0.0 0.00 0.00 0.00 41 1014.0
20260502030304 66 253 0.0 0.0 0.00 0.00 0.00 41 1014.0
20260502025803 67 253 0.0 0.0 0.00 0.00 0.00 40 1013.9
20260502025306 67 253 0.0 0.0 0.00 0.00 0.00 40 1013.9
20260502024803 67 253 0.0 0.0 0.00 0.00 0.00 38 1013.9
20260502024304 68 253 0.0 0.0 0.00 0.00 0.00 37 1013.8
20260502023804 68 253 0.0 0.0 0.00 0.00 0.00 37 1013.8
20260502023418 69 253 0.0 0.0 0.00 0.00 0.00 34 1013.8
20260502023353 69 253 0.0 0.0 0.00 0.00 0.00 36 1013.8
20260502022306 69 253 0.0 1.0 0.00 0.00 0.00 32 1013.6
20260502021804 70 253 0.0 1.0 0.00 0.00 0.00 31 1013.7
20260502021303 70 253 0.0 4.0 0.00 0.00 0.00 31 1013.6
20260502021054 70 253 0.0 4.0 0.00 0.00 0.00 30 1013.7
20260502020347 70 282 0.0 1.0 0.00 0.00 0.00 31 1013.6
20260502015306 70 282 0.0 2.0 0.00 0.00 0.00 31 1013.5
20260502014805 71 280 0.0 4.0 0.00 0.00 0.00 31 1013.6
20260502014304 71 281 0.0 4.0 0.00 0.00 0.00 32 1013.6
20260502013805 71 279 1.0 4.0 0.00 0.00 0.00 33 1013.6
20260502013306 71 274 1.0 4.0 0.00 0.00 0.00 34 1013.7
20260502012804 71 274 1.0 4.0 0.00 0.00 0.00 35 1013.6
20260502012306 71 273 0.0 4.0 0.00 0.00 0.00 36 1013.6
20260502011803 71 272 1.0 4.0 0.00 0.00 0.00 36 1013.7
20260502011303 71 271 1.0 4.0 0.00 0.00 0.00 36 1013.6
20260502010803 71 273 1.0 4.0 0.00 0.00 0.00 38 1013.6